User: anonymous   Login
Location: Unspecified
(0.0000°N, 0.0000°E)
Time: 16:14:38
(UTC+00:00)
Language:

NOAA 14 - Orbit

View from above orbital plane
View from above orbital plane
View from above satellite
View from above satellite

Ground track
Ground track

The orbit data is extracted from the following two-line orbital elements,

1 23455U 94089A   18111.81418473 -.00000027 +00000-0 +79489-5 0  9999
2 23455 098.6490 182.6624 0009353 001.6022 358.5179 14.14113989202213
Epoch (UTC): 21 April 2018 19:32:25
Eccentricity: 0.0009353
inclination: 98.6490°
perigee height: 838 km
apogee height: 852 km
right ascension of ascending node: 182.6624°
argument of perigee: 1.6022°
revolutions per day: 14.14113989
mean anomaly at epoch: 358.5179°
orbit number at epoch: 20221

The dashed part of the orbit path shows where the satellite is in the earth's shadow,  

DLR